User: anonymous   Login
Location: Doux
(49.5045°N, 4.4321°E)
Time: 12:50:11
(UTC+00:00)
Language:

CZ-2D R/B - Orbit

View from above orbital plane
View from above orbital plane
View from above satellite
View from above satellite

Ground track
Ground track

The orbit data is extracted from the following two-line orbital elements,

1 37932U 11068C   24200.82954736  .00000400  00000-0  19766-3 0  9998
2 37932  98.7973 142.5593 0037861 111.5966 303.2257 14.22539720657175
Epoch (UTC): 18 July 2024 19:54:32
Eccentricity: 0.0037861
inclination: 98.7973°
perigee height: 789 km
apogee height: 844 km
right ascension of ascending node: 142.5593°
argument of perigee: 111.5966°
revolutions per day: 14.22539720
mean anomaly at epoch: 303.2257°
orbit number at epoch: 65717

The dashed part of the orbit path shows where the satellite is in the earth's shadow,  

DLR